Regional Weather Roundup
Issued by NWS

Home | Current Version | Previous Version | Text Only | Print | Product List | Glossary On
Versions: 1 2 3 4 5 6 7 8 9 10 11 12 13 14 15 16 17 18 19 20 21 22 23 24 25 26 27 28 29 30 31 32 33 34 35 36 37 38 39 40 41 42 43 44 45 46 47 48 49 50
000
ASUS43 KLSX 060859
RWRMO

WEATHER SUMMARY FOR MISSOURI
NATIONAL WEATHER SERVICE SPRINGFIELD MO
400 AM CDT WED MAY 06 2015

NOTE: "FAIR" INDICATES FEW OR NO CLOUDS BELOW 12,000 FEET WITH NO
       SIGNIFICANT WEATHER AND/OR OBSTRUCTIONS TO VISIBILITY.
       CURRENT SKY AND/OR WEATHER CONDITIONS ARE NOT AVAILABLE FOR
       CHILLICOTHE AND FARMINGTON.

MOZ001>031-035>038-043-044-053-054-061000-
...NORTHERN AND WESTERN MISSOURI...

CITY           SKY/WX    TMP DP  RH WIND       PRES   REMARKS
KANSAS CTY INT CLOUDY    67  56  67 SE15      29.94F
KANSAS C DTWN  MOCLDY    70  55  59 SE12G22   29.94F
LEE`S SUMMIT   MOCLDY    68  54  60 SE10      29.97F
ST JOSEPH      PTCLDY    65  59  81 SE12      29.93F
CHILLICOTHE      N/A     66  58  75 SE6       30.01F
KIRKSVILLE     MOCLDY    62  58  86 S9        30.05F

$$
MOZ066>068-077>081-088>096-101>105-061000-
...SOUTHWEST MISSOURI...

CITY           SKY/WX    TMP DP  RH WIND       PRES   REMARKS
SPRINGFIELD    CLOUDY    66  52  60 SE15      30.03F
JOPLIN         CLOUDY    69  55  60 SE13G21   29.96F

$$
MOZ032>034-039>042-045>050-055>058-069>072-061000-
...CENTRAL MISSOURI...

CITY           SKY/WX    TMP DP  RH WIND       PRES   REMARKS
COLUMBIA       CLEAR     62  56  80 SE9       30.06S
JEFFERSON CITY CLEAR     65  54  67 E9        30.06S
ROLLA          CLEAR     63  51  65 SE10      30.08R
SEDALIA        MOCLDY    63  55  75 SE8       30.02F
OSAGE BEACH    PTCLDY    63  52  67 SE5       30.05S

$$
MOZ051-052-059>065-061000-
...EAST CENTRAL MISSOURI...

CITY           SKY/WX    TMP DP  RH WIND       PRES   REMARKS
ST LOUIS INTL  PTCLDY    70  56  61 S7        30.11S
SPIRIT OF STL  CLEAR     67  55  65 S3        30.09S
ST CHARLES     CLEAR     62  55  77 E5        30.10S

$$
MOZ072>076-082>087-097>100-106>115-061000-
...SOUTH CENTRAL AND SOUTHEAST MISSOURI...

CITY           SKY/WX    TMP DP  RH WIND       PRES   REMARKS
CAPE GIRARDEAU CLEAR     60  53  77 SE3       30.12F
FARMINGTON     CLEAR     57  54  88 CALM      30.16S
POPLAR BLUFF   CLEAR     56  53  90 N3        30.11S
WEST PLAINS    CLEAR     57  49  74 CALM      30.11S

$$


USA.gov is the U.S. government's official web portal to all federal, state and local government web resources and services.